www.pogodaiklimat.ru
ПОГОДА в Абадане
Время
(UTC), дата
12 27.11
15 27.11
18 27.11
21 27.11
00 28.11
03 28.11
06 28.11
09 28.11
12 28.11
15 28.11
18 28.11
21 28.11
00 29.11
03 29.11
06 29.11
09 29.11
12 29.11
15 29.11
18 29.11
21 29.11
00 30.11
03 30.11
06 30.11
09 30.11
12 30.11
15 30.11
18 30.11
21 30.11
00 1.12
03 1.12
06 1.12
09 1.12
12 1.12
15 1.12
18 1.12
21 1.12
00 2.12
03 2.12
06 2.12
09 2.12
12 2.12
15 2.12
18 2.12
21 2.12
00 3.12
03 3.12
06 3.12
09 3.12
12 3.12
15 3.12
18 3.12
21 3.12
00 4.12
03 4.12
06 4.12
09 4.12
Ветер
(напр.,м/с)
Видим. Явления Облачность Т
(С)
Тd
(С)
f
(%)
Тe
(С)
Тes
(С)
Комфортность P
(гПа)
Po
(гПа)
Тmin
(С)
Tmax
(С)
R
(мм)
R24
(мм)
S
(см)
В 5 4000 м слаб. ливневой дождь 9/6 1050 м
[Cb calv Ac As]
+19.7 +18.1 90 +22 +22 комфорт 1018.9 1018.1 2
В 5 8000 м дымка {ливн. дождь} 9/6 1050 м
[Cb calv Ac As]
+19.6 +16.9 84 +22 +22 комфорт 1019.7 1018.9 +21.0
В 8 10 км {ливн. дождь} 9/5 1050 м
[Cb calv Ac As]
+19.8 +16.3 80 +22 +22 комфорт 1019.7 1018.9 0.4
ЮВ 6 7000 м гроза, ливневой дождь 10/6 900 м
[Cb cap As op]
+19.9 +18.9 94 +23 +23 комфорт 1020.3 1019.5
Ю 2 6000 м дымка {гроза, ливн. дождь} 10/6 900 м
[Cb calv As op]
+19.1 +16.7 86 +21 +21 комфорт 1020.3 1019.5 4
В 2 5000 м слаб. дождь 10/5 900 м
[Cb calv As op]
+17.4 +16.3 93 +18 +18 1019.9 1019.1 +17.4
В 5 5000 м дымка {дождь} 10/6 900 м
[Cb calv As op]
+18.9 +18.2 96 +20 +20 1021.9 1021.0 2 8.3
В 4 3000 м слаб. дождь 10/6 750 м
[Cb calv As op]
+18.7 +17.8 95 +20 +20 1020.1 1019.3
В 7 10 км {дождь} 10/6 750 м
[Cb calv As op]
+19.4 +18.1 92 +21 +21 комфорт 1017.6 1016.8 4
В 8 7000 м гроза, ливневой дождь 10/6 750 м
[Cb cap As op]
+18.6 +18.2 98 +19 +19 1017.1 1016.3 +19.6
В 6 8000 м {гроза, дождь} 10/6 750 м
[Cb calv As op]
+17.6 +16.8 95 +17 +17 1017.7 1016.9 13
В 7 8000 м {дождь} 9/9 300 м
[Cb calv As op]
+18.5 +18.1 98 +19 +19 1016.6 1015.8
В 3 4000 м слаб. дождь {гроза} 10/6 750 м
[Cb calv As op]
+18.1 +18.1 100 +18 +18 1015.9 1015.1 11
В 3 8000 м слаб. дождь {гроза} 10/6 750 м
[Cb calv As op]
+17.7 +17.7 100 +18 +18 1015.6 1014.8 +17.3
В 4 10 км ясно +20.1 +19.1 94 +24 +26 комфорт 1017.6 1016.8 5 33.6
В 2 8000 м мгла 5/5 1050 м
[Cb calv]
+22.2 +21.2 94 +29 +33 очень
душно
1018.4 1017.6
СЗ 3 10 км 8/6 1050 м
[Cb calv Ac As]
+21.8 +19.5 87 +27 +28 душно 1018.4 1017.6
СЗ 5 8000 м дымка ясно +19.3 +18.3 94 +21 +21 комфорт 1017.4 1016.6 +22.9
СЗ 4 6000 м дымка 9/9 450 м
[St]
+18.0 +17.1 94 +18 +18 1019.2 1018.3
СЗ 4 6000 м дымка 9/9 450 м
[St]
+17.6 +15.5 87 +17 +17 1019.4 1018.5
СЗ 3 4000 м дымка ясно +16.5 +15.6 94 +16 +16 1019.3 1018.4
СЗ 4 1200 м дымка 9/9 450 м
[St]
+15.2 +14.5 96 +14 +14 1019.3 1018.4 +15.1
СЗ 5 4000 м дымка ясно +17.0 +14.7 86 +16 +18 1021.0 1020.1
СЗ 5 7000 м мгла 3/3 900 м
[Cu hum]
+19.4 +15.0 76 +21 +24 комфорт 1020.3 1019.4
СЗ 4 7000 м мгла 4/4 900 м
[Cu hum]
+20.8 +16.0 74 +24 +25 комфорт 1018.3 1017.5
СЗ 1 7000 м дымка ясно +18.2 +15.4 84 +20 +20 1018.7 1017.8 +21.2
ЮЗ 1 4000 м дымка ясно +15.4 +14.0 91 +16 +16 1019.4 1018.6
СЗ 1 1200 м дымка ясно +13.8 +13.3 97 +14 +14 1019.4 1018.6
СЗ 1 800 м туман поземный ясно +13.0 +12.8 99 +13 +13 1018.6 1017.8
З 1 100 м туман поземный ясно +12.4 +12.4 100 +12 +12 1019.1 1018.3 +12.4
З 2 500 м туман ?/? +14.0 +14.0 100 +13 +13 1020.6 1019.7
З 2 1200 м дымка {туман} 10/10 450 м
[St]
+16.1 +15.3 95 +16 +16 1020.0 1019.1
СЗ 3 2000 м в посл. час ливневой дождь 10/6 1050 м
[Cb calv As op]
+16.9 +16.1 95 +17 +17 1019.0 1018.2 0.5
СВ 1 4000 м дымка 10/6 1050 м
[Cb calv As op]
+16.9 +16.1 95 +18 +18 1020.0 1019.2 +17.1
СВ 3 4000 м {дождь} 9/5 1050 м
[Cb calv Ac As]
+16.6 +16.3 98 +16 +16 1020.0 1019.2 1
штиль 0 3000 м дымка 9/5 1050 м
[Cb calv Ac As]
+16.4 +15.4 94 +16 +16 1020.0 1019.2
СЗ 4 4000 м дымка 8/4 1200 м
[Sc diur, vesp Ac As]
+16.3 +14.9 91 +16 +16 1020.0 1019.2
СВ 2 4000 м дымка 8/5 1050 м
[Cb calv Ac As]
+15.6 +14.6 94 +15 +15 1019.4 1018.6 +15.6
В 3 7000 м дымка {дождь} 9/6 1050 м
[Cb calv As op]
+17.2 +15.7 91 +17 +18 1020.7 1019.8 0.5 2.4
В 3 8000 м дымка {дождь} 8/5 1050 м
[Cb calv As op]
+19.3 +17.6 90 +22 +23 комфорт 1019.3 1018.4
штиль 0 6000 м дымка 10/6 1050 м
[Cb calv As op]
+20.3 +17.8 86 +23 +24 комфорт 1018.3 1017.4
СВ 1 5000 м дымка {дождь} 8/6 1050 м
[Cb calv As op]
+19.2 +18.5 96 +22 +22 комфорт 1018.1 1017.2 +20.9
ЮВ 1 4000 м дымка 9/5 1050 м
[Cb calv As op]
+18.7 +18.4 98 +21 +21 комфорт 1019.3 1018.4 0.5
В 3 4000 м дымка 9/5 1050 м
[Cb calv As op]
+18.6 +18.4 99 +20 +20 1018.7 1017.8
В 3 4000 м дымка 9/5 1050 м
[Cb calv As op]
+18.3 +18.0 98 +19 +19 1018.3 1017.4
З 1 4000 м дымка {дождь} 9/5 1050 м
[Cb calv As op]
+17.8 +17.8 100 +19 +19 1019.3 1018.4 +17.8
В 2 3000 м дымка 8/4 300 м
[Cb calv As op]
+18.9 +18.1 95 +21 +22 комфорт 1020.6 1019.8 1.1
З 3 6000 м дымка 4/0
[Ac trans]
+22.8 +20.1 85 +29 +34 очень
душно
1019.9 1019.1
ЮЗ 2 6000 м дымка 8/8 1050 м
[Cb calv As op]
+22.8 +20.1 85 +29 +30 очень
душно
1020.2 1019.4
ЮЗ 1 8000 м дымка 8/5 1050 м
[Cb calv Ac As]
+21.6 +19.2 86 +27 +27 душно 1019.4 1018.6 +23.9
СЗ 2 6000 м дымка 3/3 1200 м
[Sc]
+19.9 +18.4 91 +23 +23 комфорт 1019.8 1018.9
СЗ 2 3000 м дымка ясно +18.4 +17.8 96 +20 +20 1018.8 1018.0
СВ 2 1500 м дымка ясно +17.7 +17.1 96 +18 +18 1018.3 1017.5
З 2 1200 м дымка 9/9 1050 м
[Cb calv]
+17.4 +16.8 96 +18 +18 1018.1 1017.3 +17.4
СВ 3 2500 м дымка {туман} 6/0
[Ac As]
+19.1 +17.3 89 +21 +23 комфорт 1018.6 1017.8
СЗ 3 5000 м дымка 8/5 1050 м
[Cb calv Ac As]
+21.2 +18.1 82 +25 +27 комфорт 1018.1 1017.3
Местоположение метеостанции Абадан (Иран): широта 30.37 долгота 48.25 высота над уровнем моря 6 м.
В архиве по умолчанию представлена погода в Абадане за последнюю неделю. Архивные данные за месяц целиком и за предыдущие месяцы, начиная с января 2011 года, Вы можете получить, выбрав интересующий диапазон дат из раскрывающегося списка и нажав кнопку "Найти!".
*Определитесь, кто Вы:
Внимание! Время в таблицах - всемирное. Для получения местного времени необходимо прибавить поправку, которая равна 3.5 ч.
Смотрите также архив погоды в соседних городах и на ближайших метеорологических станциях:
Партнеры нашего сайта:      
Пояснения к столбцам:
  • Ветер - указаны скорость ветра в м/с - средняя за 10 мин, порывы в срок и между сроками (в фигурных скобках) и направление, откуда дует ветер: С - северный,
  • СВ - северо-восточный, В - восточный, ЮВ - юго-восточный, Ю - южный, ЮЗ - юго-западный, З - западный, СЗ - северо-западный.
  • Видимость - горизонтальная дальность видимости в метрах или километрах. При видимости от 1 до 10 км при отсутствии осадков обычно наблюдается дымка, при ухудшении видимости до 1 км и менее - туман. В сухую погоду видимость может ухудшаться дымом, пылью или мглою.
  • Явления - указаны атмосферные явления, наблюдавшиеся в срок или в последний час перед сроком; фигурными скобками обозначены явления, наблюдавшиеся между сроками (за 1-3 часа до срока); квадратными скобками обозначены град или гололедные отложения с указанием их диаметра в мм.
  • Облачность - указаны через наклонную черту общая и нижняя облачность в баллах и высота нижней границы облаков в метрах; квадратными скобками обозначены формы облаков: Ci - перистые, Cs - перисто-слоистые, Cc - перисто-кучевые, Ac - высококучевые, As - высокослоистые, Sc - слоисто-кучевые, Ns - слоисто-дождевые, Cu - кучевые, Cb - кучево-дождевые. Подробнее классификацию облаков см. в Атласе облаков (PDF).
  • T - Температура воздуха - температура, измеренная на высоте 2 м над землей.
  • Td - Температура точки росы - температура, при понижении до которой содержащийся в воздухе водяной пар достигнет насыщения.
  • f - Относительная влажность воздуха - влажноcть воздуха, измеренная на высоте 2 м над землей.
  • Te - Эффективная температура - температура, которую ощущает одетый по сезону человек в тени. Характеристика душности погоды. При расчете учитывается влияние влажности воздуха и скорости ветра на теплоощущения человека.
  • Tes - Эффективная температура на солнце - температура, которую ощущает человек, с поправкой на солнечный нагрев. Характеристика знойности погоды. Зависит от высоты солнца над горизонтом, облачности и скорости ветра. Ночью, в пасмурную погоду, а также при ветре 12 м/с и более поправка равна нулю.
  • P - Атмосферное давление - приведенное к уровню моря атмосферное давление.
  • Po - Атмосферное давление - измеренное на уровне метеостанции атмосферное давление.
  • Tmin - Минимальная температура - минимум температуры воздуха на высоте 2 м над землей.
  • Tmax - Максимальная температура - максимум температуры воздуха на высоте 2 м над землей.
  • R - Количество осадков - Количество выпавших осадков за период времени, мм. При наведении курсора мыши на число - период времени, за который выпало указанное количество осадков.
  • R24 - Количество осадков - Количество выпавших осадков за 24 часа, мм.
  • S - Снежный покров - Высота снежного покрова, см. При наведении курсора мыши на число - состояние снежного покрова и степень покрытия местности в баллах.